loading
DOY 175 | 2024-06-23T17:06:50Z

THOR ABLESTAR DEB, 128

Orbit data source: Space-Track

THOR ABLESTAR DEB, 128 is space debris in LEO originally from a launch on Thu, 29 Jun 1961 UTC launched from the Air Force Eastern Test Range (AFETR). Debris objects in space refer to the collection of defunct objects orbiting the Earth. Examples of debris include non-operational satellites, rocket bodies, and fragments generated from explosions, collisions, or faulty payload assembly.

Loading next visibility...
Loading greatness...
THOR ABLESTAR DEB details
NORAD ID128
COSPAR ID
1961-015N
Orbit
LEO
Last TLE update13 hours ago
Origin
Flag of USUSAF SSD (US)
ManufacturerUnknown
BusUnknown
MotorUnknown
MassWet unknown, Dry mass unknown
Launch date (UTC)
1961-06-29 (63 years ago)
Launch vehicleUnknown
Launch site
Air Force Eastern Test Range (AFETR)
Object type
Payload
Rocket body
Debris
Radar Cross SectionMedium (>0.1 m² and <1 m²)
Predictive object data (real-time)
Latitude57.04654°
Longitude-13.45252°
Altitude837.501 km
Speed7.47 km/s
Apparent Right ascension18h 40m 10s
Apparent Declination16° 28' 19"
Sunlit
Object is in daylight
Predictive observer data (real-time)
Local Sidereal Time04:15:47
Azimuth321.676° NNW
Elevation-24.355°
Doppler factor1
Orbital elements
Apogee949.277 km
Perigee823.934 km
Semi-major axis7,264.743 km
Eccentricity0.0086268
Inclination66.6733°
RAAN189.9721°
Arg. of periapsis95.7299°
True anomaly264.37838°
Mean anomaly265.3628°
Mean motion3.5052 °/min
BSTAR0.000099083
Period102.7 mins
Definitive object data (Epoch: 2024-06-23T04:35:23.777Z)
Latitude-0.00007°
Longitude-150.72078°
Altitude895.889 km
Speed7.402 km/s
True Right ascension12h 39m 53s
True Declination0° 00' 00"
Sunlit
Object was in daylight at TLE epoch
TLE from 13 hours ago
0 THOR ABLESTAR DEB
1   128U 61015N   24175.19124743  .00000075  00000-0  99083-4 0  9999
2   128  66.6733 189.9721 0086268  95.7299 265.3628 14.01615490214013
Epoch: 2024-06-23T04:35Z
No data available

THOR ABLESTAR DEB Visibility forecast

Observer location: 39.9160978°, -105.1181434, 0m alt.

THOR ABLESTAR DEB is not visible in the next 10 days
Span
Click to sort rows by Start time (UTC) header in descending order
Start Az.
Max El. time (UTC)
Max El. Az.
Max El.
End time (UTC)
End Az.